Weather History for Pellston, MI

Change the Weather History Date:

Monday, December 9, 2013

  Actual Average Record
Temperature  
Mean Temperature 18 °F -  
Max Temperature 27 °F 31 °F 50 °F (1987)
Min Temperature 10 °F 18 °F -17 °F (1958)
Degree Days  
Heating Degree Days 46    
Moisture  
Dew Point 16 °F    
Average Humidity 80    
Maximum Humidity 93    
Minimum Humidity 63    
Precipitation  
Precipitation 0.13 in - - ()
Sea Level Pressure  
Sea Level Pressure 29.82 in    
Wind  
Wind Speed 7 mph (WSW)    
Max Wind Speed 28 mph    
Max Gust Speed 39 mph    
Visibility 2 miles    
Events Fog , Snow    
Averages and records for this station are not official NWS values.
T = Trace of Precipitation, MM = Missing Value Source: NWS Daily Summary

Daily Weather History Graph

Daily Weather History Graph

Search for Another Location

Airport:

Trip Planner

Search our weather history database for the weather conditions in past years. The results will help you decide how hot, cold, wet, or windy it might be!

Date:

Astronomy

Dec. 09, 2013 Rise Set
Actual Time 8:07 AM EST 4:55 PM EST
Civil Twilight 7:33 AM EST 5:29 PM EST
Nautical Twilight 6:56 AM EST 6:06 PM EST
Astronomical Twilight 6:20 AM EST 6:42 PM EST
Moon 12:43 PM EST (12/9) No Moon Set
Length of Visible Light 9h 55m
Length of Day
8h 47m
Waxing Crescent, 51% of the Moon is Illuminated
Dec 9
Waxing Crescent
Dec 17
Full
Dec 25
Last Quarter
Jan 1
New
Jan 7
First Quarter

Hourly Weather History & Observations

Time (EST) Temp. Windchill Dew Point Humidity Pressure Visibility Wind Dir Wind Speed Gust Speed Precip Events Conditions
12:17 AM 19.4 °F - 17.6 °F 93% 30.02 in 1.5 mi Calm Calm - 0.00 in Snow Light Snow
12:54 AM 21.0 °F 16.2 °F 18.0 °F 88% 30.03 in 1.5 mi East 3.5 mph - 0.01 in Snow Light Snow
1:12 AM 21.2 °F 14.9 °F 17.6 °F 86% 29.97 in 2.0 mi East 4.6 mph - 0.01 in Snow Light Snow
1:42 AM 21.2 °F 13.6 °F 19.4 °F 93% 29.94 in 1.2 mi East 5.8 mph - 0.01 in Snow Light Snow
1:54 AM 21.9 °F 14.5 °F 19.0 °F 89% 29.97 in 1.5 mi East 5.8 mph - 0.02 in Snow Light Snow
2:14 AM 21.2 °F 16.4 °F 19.4 °F 93% 29.92 in 2.0 mi SE 3.5 mph - 0.00 in Snow Light Snow
2:29 AM 21.2 °F - 19.4 °F 93% 29.92 in 1.8 mi Calm Calm - 0.00 in Snow Light Snow
2:54 AM 23.0 °F 18.4 °F 19.9 °F 88% 29.94 in 1.5 mi ENE 3.5 mph - 0.01 in Snow Light Snow
3:07 AM 23.0 °F 18.4 °F 19.4 °F 86% 29.90 in 2.0 mi ENE 3.5 mph - 0.00 in Snow Light Snow
3:20 AM 23.0 °F - 21.2 °F 93% 29.89 in 1.5 mi Calm Calm - 0.00 in Snow Light Snow
3:54 AM 23.0 °F - 21.0 °F 92% 29.90 in 1.2 mi Calm Calm - 0.02 in Snow Light Snow
4:34 AM 21.2 °F - 19.4 °F 93% 29.83 in 2.0 mi Calm Calm - 0.01 in Snow Light Snow
4:54 AM 21.9 °F 17.2 °F 19.9 °F 92% 29.86 in 2.5 mi WSW 3.5 mph - 0.01 in Snow Light Snow
5:21 AM 21.2 °F - 19.4 °F 93% 29.80 in 3.0 mi Calm Calm - 0.00 in Snow Light Snow
5:37 AM 21.2 °F - 19.4 °F 93% 29.79 in 4.0 mi Calm Calm - 0.00 in Snow Light Snow
5:54 AM 21.9 °F - 19.9 °F 92% 29.82 in 4.0 mi Calm Calm - 0.01 in Snow Light Snow
6:27 AM 21.2 °F - 19.4 °F 93% 29.77 in 2.5 mi Calm Calm - 0.00 in Snow Light Snow
6:52 AM 21.2 °F - 19.4 °F 93% 29.76 in 3.0 mi Calm Calm - 0.00 in Snow Light Snow
6:54 AM 21.9 °F - 19.0 °F 89% 29.79 in 4.0 mi Calm Calm - 0.00 in Snow Light Snow
7:15 AM 21.2 °F - 19.4 °F 93% 29.75 in 2.5 mi Calm Calm - 0.00 in Snow Light Snow
7:23 AM 21.2 °F - 19.4 °F 93% 29.74 in 3.0 mi Calm Calm - 0.00 in Snow Light Snow
7:54 AM 21.9 °F - 19.0 °F 89% 29.79 in 4.0 mi Calm Calm - 0.00 in Snow Light Snow
8:33 AM 23.0 °F - 19.4 °F 86% 29.74 in 2.5 mi Calm Calm - 0.00 in Snow Light Snow
8:42 AM 23.0 °F - 19.4 °F 86% 29.74 in 4.0 mi Calm Calm - 0.00 in Snow Light Snow
8:54 AM 23.0 °F - 19.9 °F 88% 29.78 in 3.0 mi Calm Calm - 0.00 in Snow Light Snow
8:58 AM 23.0 °F - 19.4 °F 86% 29.74 in 2.5 mi Calm Calm - 0.00 in Snow Light Snow
9:07 AM 23.0 °F 18.4 °F 19.4 °F 86% 29.74 in 2.5 mi Variable 3.5 mph - 0.00 in Snow Light Snow
9:14 AM 24.8 °F 16.9 °F 21.2 °F 86% 29.74 in 3.0 mi WSW 6.9 mph - 0.00 in Snow Light Snow
9:54 AM 26.1 °F 18.4 °F 21.0 °F 81% 29.78 in 7.0 mi West 6.9 mph - 0.00 in   Overcast
10:09 AM 26.6 °F 18.2 °F 21.2 °F 80% 29.75 in 10.0 mi West 8.1 mph - N/A   Overcast
10:36 AM 26.6 °F 17.5 °F 19.4 °F 74% 29.76 in 9.0 mi WSW 9.2 mph - 0.00 in   Overcast
10:54 AM 27.0 °F 15.6 °F 18.0 °F 69% 29.80 in 10.0 mi West 13.8 mph 19.6 mph 0.00 in   Mostly Cloudy
11:54 AM 27.0 °F 16.7 °F 19.0 °F 72% 29.79 in 3.0 mi West 11.5 mph 20.7 mph 0.00 in Snow Light Snow
12:12 PM 26.6 °F 16.8 °F 19.4 °F 74% 29.74 in 1.8 mi West 10.4 mph 18.4 mph 0.00 in Snow Light Snow
12:20 PM 26.6 °F 20.0 °F 21.2 °F 80% 29.73 in 1.5 mi West 5.8 mph - 0.00 in Snow Light Snow
12:51 PM 26.6 °F 17.5 °F 21.2 °F 80% 29.72 in 0.5 mi West 9.2 mph - 0.00 in Fog , Snow Snow
12:54 PM 26.1 °F 17.6 °F 21.9 °F 84% 29.75 in 0.5 mi West 8.1 mph - 0.00 in Fog , Snow Snow
1:09 PM 26.6 °F 21.2 °F 23.0 °F 86% 29.72 in 0.2 mi West 4.6 mph - 0.01 in Fog , Snow Snow
1:50 PM 26.6 °F 16.2 °F 21.2 °F 80% 29.71 in 0.5 mi WSW 11.5 mph 21.9 mph 0.03 in Fog , Snow Snow
1:54 PM 26.1 °F 16.2 °F 21.9 °F 84% 29.75 in 0.5 mi WSW 10.4 mph 21.9 mph 0.03 in Fog , Snow Snow
1:59 PM 26.6 °F 14.7 °F 21.2 °F 80% 29.71 in 1.0 mi WSW 15.0 mph 20.7 mph 0.00 in Snow Light Snow
2:03 PM 26.6 °F 16.2 °F 19.4 °F 74% 29.71 in 2.0 mi WSW 11.5 mph 20.7 mph 0.00 in Snow Light Snow
2:12 PM 26.6 °F 13.8 °F 19.4 °F 74% 29.71 in 0.8 mi WSW 17.3 mph 24.2 mph 0.00 in Snow Light Snow
2:14 PM 24.8 °F 12.4 °F 21.2 °F 86% 29.71 in 0.5 mi WSW 15.0 mph 24.2 mph 0.00 in Fog , Snow Snow
2:21 PM 24.8 °F 12.4 °F 21.2 °F 86% 29.71 in 0.2 mi WSW 15.0 mph 24.2 mph 0.00 in Fog , Snow Heavy Snow
2:35 PM 24.8 °F 13.4 °F 19.4 °F 80% 29.72 in 0.5 mi WSW 12.7 mph 27.6 mph 0.00 in Snow Snow
2:54 PM 25.0 °F 13.1 °F 19.0 °F 78% 29.75 in 0.8 mi WSW 13.8 mph 32.2 mph 0.01 in Snow Light Snow
3:00 PM 24.8 °F 14.0 °F 19.4 °F 80% 29.72 in 1.0 mi WSW 11.5 mph - 0.00 in Snow Light Snow
3:09 PM 24.8 °F 12.9 °F 17.6 °F 74% 29.72 in 3.0 mi WSW 13.8 mph 26.5 mph 0.00 in Snow Light Snow
3:16 PM 24.8 °F 12.4 °F 15.8 °F 69% 29.72 in 2.0 mi WSW 15.0 mph 27.6 mph 0.00 in Snow Light Snow
3:24 PM 24.8 °F 12.9 °F 15.8 °F 69% 29.72 in 1.8 mi WSW 13.8 mph 28.8 mph 0.00 in Snow Light Snow
3:54 PM 23.0 °F 9.6 °F 16.0 °F 74% 29.78 in 1.2 mi WSW 16.1 mph 26.5 mph 0.00 in Snow Light Snow
4:17 PM 21.2 °F 7.3 °F 15.8 °F 80% 29.75 in 0.8 mi WSW 16.1 mph 27.6 mph 0.00 in Snow Light Snow
4:38 PM 21.2 °F 7.3 °F 15.8 °F 80% 29.76 in 1.2 mi WSW 16.1 mph 31.1 mph 0.00 in Snow Light Snow
4:54 PM 21.9 °F 8.7 °F 12.9 °F 68% 29.81 in 4.0 mi SW 15.0 mph 26.5 mph 0.00 in Snow Light Snow
5:10 PM 21.2 °F 5.2 °F 12.2 °F 68% 29.78 in 2.5 mi WSW 21.9 mph 39.1 mph 0.00 in Snow Light Snow
5:23 PM 21.2 °F 7.8 °F 15.8 °F 80% 29.78 in 1.0 mi WSW 15.0 mph 34.5 mph 0.00 in Snow Light Snow
5:54 PM 19.9 °F 4.8 °F 12.0 °F 71% 29.83 in 1.2 mi WSW 18.4 mph 36.8 mph 0.00 in Snow Light Snow
6:06 PM 19.4 °F 2.5 °F 10.4 °F 68% 29.80 in 2.5 mi WSW 23.0 mph 38.0 mph 0.00 in Snow Light Snow
6:15 PM 19.4 °F 3.6 °F 10.4 °F 68% 29.79 in 1.2 mi SW 19.6 mph 38.0 mph 0.00 in Snow Light Snow
6:25 PM 19.4 °F 3.6 °F 8.6 °F 63% 29.80 in 1.8 mi WSW 19.6 mph 34.5 mph 0.00 in Snow Light Snow
6:33 PM 19.4 °F 5.5 °F 8.6 °F 63% 29.81 in 3.0 mi WSW 15.0 mph 32.2 mph 0.00 in Snow Light Snow
6:39 PM 19.4 °F 4.1 °F 10.4 °F 68% 29.81 in 1.8 mi West 18.4 mph 29.9 mph 0.00 in Snow Light Snow
6:52 PM 19.4 °F 5.5 °F 12.2 °F 74% 29.82 in 1.8 mi WSW 15.0 mph 24.2 mph 0.00 in Snow Light Snow
6:54 PM 19.0 °F 3.2 °F 12.0 °F 74% 29.86 in 1.2 mi West 19.6 mph 32.2 mph 0.00 in Snow Light Snow
7:02 PM 17.6 °F 3.2 °F 12.2 °F 79% 29.82 in 0.5 mi West 15.0 mph 32.2 mph 0.00 in Snow Snow
7:24 PM 17.6 °F 3.7 °F 12.2 °F 79% 29.82 in 1.2 mi WSW 13.8 mph 27.6 mph 0.00 in Snow Light Snow
7:36 PM 17.6 °F 3.2 °F 14.0 °F 86% 29.82 in 0.5 mi West 15.0 mph 31.1 mph 0.00 in Fog , Snow Snow
7:39 PM 17.6 °F 1.3 °F 14.0 °F 86% 29.82 in 0.2 mi West 19.6 mph 31.1 mph 0.00 in Fog , Snow Heavy Snow
7:54 PM 18.0 °F 4.2 °F 14.0 °F 84% 29.86 in 0.5 mi West 13.8 mph 25.3 mph 0.01 in Fog , Snow Snow
8:22 PM 17.6 °F 5.7 °F 12.2 °F 79% 29.83 in 1.0 mi West 10.4 mph 21.9 mph 0.00 in Snow Light Snow
8:26 PM 17.6 °F 5.0 °F 12.2 °F 79% 29.84 in 2.5 mi West 11.5 mph - 0.00 in Snow Light Snow
8:40 PM 17.6 °F 0.5 °F 8.6 °F 68% 29.84 in 1.0 mi West 21.9 mph 36.8 mph 0.00 in Snow Light Snow
8:54 PM 17.1 °F 2.5 °F 10.0 °F 74% 29.89 in 1.5 mi West 15.0 mph 28.8 mph 0.00 in Snow Light Snow
9:03 PM 17.6 °F 2.7 °F 8.6 °F 68% 29.86 in 3.0 mi West 16.1 mph 28.8 mph 0.00 in Snow Light Snow
9:14 PM 17.6 °F 2.7 °F 8.6 °F 68% 29.86 in 2.0 mi West 16.1 mph 25.3 mph 0.00 in Snow Light Snow
9:21 PM 15.8 °F 0.9 °F 10.4 °F 79% 29.86 in 0.8 mi West 15.0 mph 28.8 mph 0.00 in Snow Light Snow
9:39 PM 15.8 °F 0.3 °F 12.2 °F 86% 29.87 in 0.5 mi West 16.1 mph 21.9 mph 0.00 in Fog , Snow Snow
9:54 PM 14.0 °F -5.5 °F 8.1 °F 77% 29.92 in 0.8 mi West 25.3 mph 36.8 mph 0.00 in Snow Light Snow
10:00 PM 14.0 °F -4.3 °F 6.8 °F 73% 29.88 in 1.0 mi West 21.9 mph 35.7 mph 0.00 in Snow Light Snow
10:22 PM 12.2 °F -8.6 °F 6.8 °F 79% 29.89 in 1.2 mi West 27.6 mph 34.5 mph 0.00 in Snow Light Snow
10:32 PM 12.2 °F -7.1 °F 6.8 °F 79% 29.90 in 0.8 mi West 23.0 mph 36.8 mph 0.00 in Snow Light Snow
10:51 PM 12.2 °F -6.7 °F 5.0 °F 73% 29.91 in 1.0 mi West 21.9 mph 29.9 mph 0.00 in Snow Light Snow
10:54 PM 12.0 °F -6.5 °F 5.0 °F 73% 29.96 in 1.2 mi West 20.7 mph 33.4 mph 0.00 in Snow Light Snow
11:26 PM 10.4 °F -6.6 °F 3.2 °F 73% 29.93 in 3.0 mi WNW 16.1 mph - 0.00 in Snow Light Snow
11:37 PM 10.4 °F -7.7 °F 3.2 °F 73% 29.93 in 5.0 mi WNW 18.4 mph 26.5 mph 0.00 in Snow Light Snow
11:54 PM 10.9 °F -4.1 °F 1.9 °F 67% 29.98 in 9.0 mi WNW 12.7 mph 19.6 mph 0.00 in   Overcast